Skip Page Navigation
NASA JPL Caltech
NASA Logo - Jet Propulsion Laboratory + View the NASA Portal
+ Center for Near-Earth Object Studies
JPL Home Earth Solar System Stars & Galaxies Technology
JPL Solar System Dynamics
BODIES ORBITS EPHEMERIDES TOOLS PHYSICAL DATA DISCOVERY FAQ SITE MAP
JPL Small-Body Database Browser
Search: [ help ]  
67229 (2000 DX108)
Classification: Main-belt Asteroid          SPK-ID: 2067229
Ephemeris | Orbit Diagram | Orbital Elements | Mission Design | Physical Parameters | Discovery Circumstances | Close-Approach Data ]

[ show orbit diagram ]
Orbital Elements at Epoch 2459200.5 (2020-Dec-17.0) TDB
Reference: JPL 29 (heliocentric ecliptic J2000)
 Element Value Uncertainty (1-sigma)   Units 
e .1811448219767266 3.4558e-08  
a 3.142296879607308 1.7413e-08 au
q 2.573086070752819 1.0857e-07 au
i 5.697187799712901 4.1622e-06 deg
node 82.06816378980619 3.8361e-05 deg
peri 275.09221635872 4.0312e-05 deg
M 50.80125559454349 1.1222e-05 deg
tp 2458913.394710587700
(2020-Mar-04.89471059)
6.3292e-05 TDB
period 2034.554126247416
5.57
1.6912e-05
4.63e-08
d
yr
n .1769429455602606 1.4708e-09 deg/d
Q 3.711507688461797 2.0567e-08 au
  Orbit Determination Parameters
   # obs. used (total)      1393  
   data-arc span      14384 days (39.38 yr)  
   first obs. used      1981-10-25  
   last obs. used      2021-03-13  
   planetary ephem.      DE441  
   SB-pert. ephem.      SB441-N16  
   condition code      0  
   norm. resid. RMS      .50924  
   source      ORB  
   producer      Otto Matic  
   solution date      2021-Apr-13 12:28:38  

Additional Information
 Earth MOID = 1.57548 au 
 Jupiter MOID = 1.77146 au 
 T_jup = 3.177 
[ show covariance matrix ]

Ephemeris | Orbit Diagram | Orbital Elements | Mission Design | Physical Parameters | Discovery Circumstances | Close-Approach Data ]

Physical Parameter Table
Parameter Symbol Value Units Sigma Reference Notes
absolute magnitude H 13.97   n/a MPCxxxxx  
diameter diameter 8.910 km 0.165 urn:nasa:pds:neowise_diameters_albedos::2.0[mainbelt] (http://adsabs.harvard.edu/abs/2011ApJ...741...68M)  
geometric albedo albedo 0.074   0.014 urn:nasa:pds:neowise_diameters_albedos::2.0[mainbelt] (http://adsabs.harvard.edu/abs/2011ApJ...741...68M)  

67229 (2000 DX108)          Discovered 2000-Feb-29 by LINEAR at Socorro
Reference: 20030910/Numbers.arcLast Updated: 2004-04-19

[ show close-approach data ]
Alternate Designations
 2000 DX108 = 1981 UB27 = 1998 XZ37 
Ephemeris | Orbit Diagram | Orbital Elements | Mission Design | Physical Parameters | Discovery Circumstances | Close-Approach Data ]
ABOUT SSD CREDITS/AWARDS PRIVACY/COPYRIGHT GLOSSARY LINKS
FirstGov 2021-Jun-13 12:30 UT
(server date/time)  
NASA Home Page
Site Manager:   Ryan S. Park
Webmaster  Alan B. Chamberlin